TimePST,TemperatureF,Dew PointF,Humidity,Sea Level PressureIn,VisibilityMPH,Wind Direction,Wind SpeedMPH,Gust SpeedMPH,PrecipitationIn,Events,Conditions,WindDirDegrees,DateUTC
12:11 AM,21.2,21.2,100,30.41,8.0,North,2.3,-,N/A,,Partly Cloudy,350,2013-02-02 08:11:00
12:20 AM,21.2,21.2,100,30.41,10.0,NNW,3.5,-,N/A,Snow,Light Snow,340,2013-02-02 08:20:00
12:23 AM,21.2,21.2,100,30.41,10.0,NNW,3.5,-,N/A,,Clear,330,2013-02-02 08:23:00
12:55 AM,21.2,21.2,100,30.42,10.0,ENE,3.5,-,N/A,Snow,Light Snow,60,2013-02-02 08:55:00
12:58 AM,20.7,20.7,100,30.52,9.0,NE,4.6,-,0.00,Snow,Light Snow,50,2013-02-02 08:58:00
1:03 AM,19.4,19.4,100,30.42,1.8,NNE,3.5,-,N/A,Snow,Light Snow,30,2013-02-02 09:03:00
1:08 AM,19.4,19.4,100,30.42,0.8,NE,2.3,-,N/A,,Clear,40,2013-02-02 09:08:00
1:10 AM,19.4,19.4,100,30.42,0.8,NE,2.3,-,N/A,Snow,Light Snow,40,2013-02-02 09:10:00
1:11 AM,19.4,19.4,100,30.41,0.8,NE,2.3,-,N/A,Snow,Light Snow,40,2013-02-02 09:11:00
1:16 AM,19.4,19.4,100,30.41,0.8,ENE,1.2,-,N/A,Snow,Light Snow,60,2013-02-02 09:16:00
1:21 AM,19.4,19.4,100,30.42,0.8,ENE,2.3,-,N/A,Snow,Light Snow,60,2013-02-02 09:21:00
1:26 AM,19.4,19.4,100,30.42,1.0,NNE,2.3,-,N/A,Snow,Light Snow,30,2013-02-02 09:26:00
1:31 AM,21.2,21.2,100,30.42,1.2,NNE,2.3,-,N/A,,Partly Cloudy,20,2013-02-02 09:31:00
1:32 AM,21.2,21.2,100,30.42,1.2,NNE,2.3,-,N/A,Snow,Light Snow,20,2013-02-02 09:32:00
1:33 AM,21.2,21.2,100,30.42,1.2,North,2.3,-,N/A,,Partly Cloudy,10,2013-02-02 09:33:00
1:48 AM,21.2,21.2,100,30.43,1.5,North,3.5,-,N/A,,Partly Cloudy,10,2013-02-02 09:48:00
1:53 AM,21.2,21.2,100,30.43,2.0,North,3.5,-,N/A,,Partly Cloudy,10,2013-02-02 09:53:00
1:58 AM,20.7,20.7,100,30.53,2.5,North,3.5,-,0.00,,Partly Cloudy,360,2013-02-02 09:58:00
2:03 AM,21.2,21.2,100,30.43,3.0,North,2.3,-,N/A,,Partly Cloudy,10,2013-02-02 10:03:00
2:08 AM,21.2,21.2,100,30.43,1.8,NNE,2.3,-,N/A,,Partly Cloudy,30,2013-02-02 10:08:00
2:13 AM,21.2,21.2,100,30.43,1.0,ENE,1.2,-,N/A,,Mist,60,2013-02-02 10:13:00
2:23 AM,21.2,21.2,100,30.43,0.8,NE,1.2,-,N/A,,Mist,50,2013-02-02 10:23:00
2:28 AM,21.2,21.2,100,30.43,0.8,North,1.2,-,N/A,,Mist,10,2013-02-02 10:28:00
2:33 AM,21.2,21.2,100,30.43,1.0,NNW,3.5,-,N/A,,Mist,340,2013-02-02 10:33:00
2:34 AM,21.2,21.2,100,30.43,1.0,NNW,3.5,-,N/A,Snow,Light Snow,340,2013-02-02 10:34:00
2:39 AM,21.2,21.2,100,30.43,1.5,NNW,4.6,-,N/A,Snow,Light Snow,330,2013-02-02 10:39:00
2:44 AM,19.4,19.4,100,30.43,3.0,North,4.6,-,N/A,Snow,Light Snow,350,2013-02-02 10:44:00
2:46 AM,21.2,21.2,100,30.43,5.0,North,4.6,-,N/A,,Mostly Cloudy,360,2013-02-02 10:46:00
2:58 AM,20.5,20.5,100,30.53,10.0,NNE,3.5,-,0.00,,Overcast,20,2013-02-02 10:58:00
3:13 AM,21.2,21.2,100,30.43,7.0,North,3.5,-,N/A,,Overcast,10,2013-02-02 11:13:00
3:17 AM,21.2,21.2,100,30.43,2.5,NNE,3.5,-,N/A,,Overcast,20,2013-02-02 11:17:00
3:20 AM,21.2,21.2,100,30.43,1.5,NNE,3.5,-,N/A,,Light Freezing Drizzle,20,2013-02-02 11:20:00
3:21 AM,21.2,21.2,100,30.43,1.2,NNE,3.5,-,N/A,Snow,Light Snow,20,2013-02-02 11:21:00
3:26 AM,21.2,21.2,100,30.43,0.8,NNE,2.3,-,N/A,Snow,Light Snow,30,2013-02-02 11:26:00
3:31 AM,21.2,21.2,100,30.42,0.5,Calm,Calm,-,N/A,Fog-Snow,Light Freezing Fog,0,2013-02-02 11:31:00
3:36 AM,21.2,21.2,100,30.43,0.5,NE,2.3,-,N/A,Fog-Snow,Light Freezing Fog,40,2013-02-02 11:36:00
3:41 AM,21.2,21.2,100,30.43,0.5,North,2.3,-,N/A,Fog-Snow,Light Freezing Fog,10,2013-02-02 11:41:00
3:58 AM,21.7,21.7,100,30.53,0.5,North,3.5,-,N/A,Fog,Light Freezing Fog,360,2013-02-02 11:58:00
3:59 AM,21.2,21.2,100,30.43,0.5,North,3.5,-,N/A,Fog-Snow,Light Freezing Fog,10,2013-02-02 11:59:00
4:14 AM,23.0,23.0,100,30.43,0.5,North,3.5,-,N/A,Fog-Snow,Light Freezing Fog,10,2013-02-02 12:14:00
4:19 AM,24.8,23.0,93,30.44,0.5,NNE,3.5,-,N/A,Fog,Light Freezing Fog,20,2013-02-02 12:19:00
4:20 AM,24.8,23.0,93,30.44,0.5,North,2.3,-,N/A,Fog,Light Freezing Fog,10,2013-02-02 12:20:00
4:24 AM,24.8,23.0,93,30.44,0.5,North,2.3,-,N/A,Fog,Light Freezing Fog,10,2013-02-02 12:24:00
4:58 AM,-9999,-9999,N/A,30.53,0.5,NNE,3.5,-,N/A,Fog,Light Freezing Fog,30,2013-02-02 12:58:00
4:59 AM,24.8,-9999,N/A,30.43,0.5,NNE,3.5,-,N/A,Fog,Light Freezing Fog,30,2013-02-02 12:59:00
5:58 AM,24.8,24.8,100,30.52,0.5,NE,3.5,-,N/A,Fog,Light Freezing Fog,40,2013-02-02 13:58:00
6:58 AM,24.8,24.8,100,30.52,0.5,NNE,4.6,-,N/A,Fog,Light Freezing Fog,30,2013-02-02 14:58:00
6:59 AM,-9999,-9999,N/A,30.42,0.5,NNE,3.5,-,N/A,,Light Freezing Drizzle,20,2013-02-02 14:59:00
7:16 AM,24.8,24.8,100,30.52,0.2,NNE,4.6,-,N/A,Fog,Light Freezing Fog,20,2013-02-02 15:16:00
7:55 AM,25.5,25.5,100,30.53,0.2,NNE,4.6,-,0.00,Fog,Light Freezing Fog,30,2013-02-02 15:55:00
8:55 AM,27.0,27.0,100,30.54,0.5,NNE,4.6,-,N/A,Fog,Light Freezing Fog,30,2013-02-02 16:55:00
9:55 AM,28.6,28.6,100,30.53,0.5,NNE,8.1,-,N/A,Fog,Light Freezing Fog,20,2013-02-02 17:55:00
10:55 AM,29.5,29.5,100,30.53,0.5,NE,9.2,-,N/A,Fog,Light Freezing Fog,40,2013-02-02 18:55:00
11:55 AM,30.2,30.2,100,30.51,0.5,NNE,8.1,-,N/A,Fog,Light Freezing Fog,20,2013-02-02 19:55:00
12:40 PM,30.2,30.2,100,30.50,0.2,NNE,9.2,-,N/A,Fog,Light Freezing Fog,30,2013-02-02 20:40:00
12:55 PM,30.2,30.2,100,30.49,0.2,North,8.1,-,N/A,Fog,Light Freezing Fog,360,2013-02-02 20:55:00
1:55 PM,32.0,32.0,100,30.47,0.2,NNE,8.1,-,N/A,Fog,Light Freezing Fog,30,2013-02-02 21:55:00
2:55 PM,32.0,32.0,100,30.45,0.2,NNE,8.1,-,N/A,Fog,Light Freezing Fog,30,2013-02-02 22:55:00
3:55 PM,30.9,30.9,100,30.44,0.2,NE,9.2,-,N/A,Fog,Light Freezing Fog,40,2013-02-02 23:55:00
4:55 PM,30.2,30.2,100,30.41,0.2,NNE,6.9,-,N/A,Fog,Light Freezing Fog,20,2013-02-03 00:55:00
5:55 PM,30.2,30.2,100,30.39,0.5,NNE,6.9,-,N/A,Fog,Light Freezing Fog,30,2013-02-03 01:55:00
6:58 PM,30.2,30.2,100,30.36,0.5,NNE,5.8,-,N/A,Fog,Light Freezing Fog,20,2013-02-03 02:58:00
7:58 PM,29.8,30.2,100,30.34,0.5,NNE,4.6,-,N/A,Fog,Light Freezing Fog,20,2013-02-03 03:58:00
8:58 PM,30.2,30.2,100,30.34,0.5,NW,3.5,-,N/A,Fog,Light Freezing Fog,310,2013-02-03 04:58:00
9:39 PM,28.4,28.4,100,30.32,0.8,Calm,Calm,-,N/A,,Mist,0,2013-02-03 05:39:00
9:58 PM,28.4,28.4,100,30.32,0.8,Calm,Calm,-,N/A,,Mist,0,2013-02-03 05:58:00
10:04 PM,28.4,28.4,100,30.32,1.0,Calm,Calm,-,N/A,,Mist,0,2013-02-03 06:04:00
10:31 PM,28.4,28.4,100,30.31,0.8,Calm,Calm,-,N/A,,Mist,0,2013-02-03 06:31:00
10:41 PM,28.4,28.4,100,30.31,0.5,Calm,Calm,-,N/A,Fog,Light Freezing Fog,0,2013-02-03 06:41:00
10:58 PM,28.4,28.4,100,30.31,0.8,Calm,Calm,-,N/A,,Mist,0,2013-02-03 06:58:00
11:54 PM,28.4,28.4,100,30.30,0.5,Calm,Calm,-,N/A,Fog,Light Freezing Fog,0,2013-02-03 07:54:00
11:58 PM,28.0,28.4,100,30.29,0.5,Calm,Calm,-,N/A,Fog,Light Freezing Fog,0,2013-02-03 07:58:00